Location: Harbor View
(36.2448°N, 86.5797°W)
Time: 08:00:37
(UTC+00:00)

COSMO-SKYMED 1 - Pass Details

Date: 01 March 2021
Orbit: 621 x 623 km, 97.9° (Epoch: 13 April)

Event Time Altitude Azimuth Distance (km) Brightness Sun altitude
Rises 10:13:12 0° 137° (SE) 2,891 6.4 -25.6°
Reaches altitude 10° 10:15:42 10° 123° (ESE) 1,990 5.7 -25.1°
Maximum altitude 10:19:10 24° 70° (ENE) 1,298 4.9 -24.4°
Drops below altitude 10° 10:22:40 10° 16° (NNE) 2,001 5.4 -23.7°
Sets 10:25:10 0° 3° (N) 2,911 6.1 -23.2°
